Tracking 35274 objects as of 11-Sep-2026
HD Live streaming from Space Station
objects crossing your sky now

THOR ABLESTAR DEB


10-day predictions


NORAD ID: 469
Int'l Code: 1961-015FF
Launch date: June 29, 1961
Source: United States (US)
Launch site: AIR FORCE EASTERN TEST RANGE (AFETR)

Note: This is SATELLITE DEBRIS
Your satellite tracking list
Your tracking list is empty




NASA's NSSDC Master Catalog

Two Line Element Set (TLE):
1   469U 61015FF  26253.48281689  .00000526  00000-0  20982-3 0  9993
2   469  66.8321 291.8154 0053067 134.5148 226.0309 14.35278062365255
Source of the keplerian elements: AFSPC